TimeCDT,TemperatureF,Dew PointF,Humidity,Sea Level PressureIn,VisibilityMPH,Wind Direction,Wind SpeedMPH,Gust SpeedMPH,PrecipitationIn,Events,Conditions,WindDirDegrees,DateUTC
12:15 AM,35.6,30.2,81,30.21,10.0,East,13.8,-,N/A,,Overcast,100,2012-03-27 05:15:00
12:35 AM,37.4,30.2,75,30.21,10.0,ESE,11.5,-,N/A,,Overcast,110,2012-03-27 05:35:00
12:55 AM,37.4,28.4,70,30.24,10.0,SE,8.1,-,N/A,,Scattered Clouds,130,2012-03-27 05:55:00
1:15 AM,37.4,28.4,70,30.26,10.0,SE,6.9,-,N/A,,Mostly Cloudy,130,2012-03-27 06:15:00
1:35 AM,37.4,28.4,70,30.24,10.0,ESE,11.5,-,N/A,,Mostly Cloudy,110,2012-03-27 06:35:00
1:55 AM,37.4,26.6,65,30.22,10.0,ESE,13.8,-,N/A,,Scattered Clouds,120,2012-03-27 06:55:00
2:15 AM,37.4,26.6,65,30.21,10.0,SE,17.3,21.9,N/A,,Clear,130,2012-03-27 07:15:00
2:35 AM,37.4,28.4,70,30.21,10.0,ESE,15.0,20.7,N/A,,Clear,120,2012-03-27 07:35:00
2:55 AM,37.4,28.4,70,30.20,10.0,SE,16.1,20.7,N/A,,Clear,130,2012-03-27 07:55:00
3:15 AM,37.4,28.4,70,30.19,10.0,SE,12.7,-,N/A,,Clear,130,2012-03-27 08:15:00
3:35 AM,37.4,28.4,70,30.18,10.0,SE,15.0,21.9,N/A,,Clear,130,2012-03-27 08:35:00
3:55 AM,37.4,28.4,70,30.18,10.0,SE,15.0,21.9,N/A,,Scattered Clouds,130,2012-03-27 08:55:00
4:15 AM,37.4,28.4,70,30.17,10.0,SE,15.0,23.0,N/A,,Mostly Cloudy,130,2012-03-27 09:15:00
4:35 AM,37.4,30.2,75,30.16,10.0,SE,16.1,24.2,N/A,,Mostly Cloudy,140,2012-03-27 09:35:00
4:55 AM,37.4,30.2,75,30.17,10.0,SE,17.3,24.2,N/A,,Scattered Clouds,140,2012-03-27 09:55:00
5:15 AM,37.4,30.2,75,30.16,10.0,SE,18.4,23.0,N/A,,Clear,140,2012-03-27 10:15:00
5:35 AM,37.4,30.2,75,30.16,10.0,SE,18.4,25.3,N/A,,Clear,140,2012-03-27 10:35:00
5:45 AM,37.4,28.4,70,30.16,10.0,SE,11.5,21.9,N/A,,Scattered Clouds,140,2012-03-27 10:45:00
6:45 AM,37.4,26.6,65,30.15,10.0,SE,16.1,27.6,N/A,,Overcast,140,2012-03-27 11:45:00
7:45 AM,37.4,28.4,70,30.14,10.0,SE,13.8,23.0,N/A,,Overcast,140,2012-03-27 12:45:00
8:45 AM,39.2,24.8,56,30.13,10.0,SSE,13.8,23.0,N/A,,Mostly Cloudy,150,2012-03-27 13:45:00
9:45 AM,41.0,24.8,53,30.08,10.0,SE,16.1,21.9,N/A,,Overcast,140,2012-03-27 14:45:00
10:45 AM,42.8,21.2,42,30.04,10.0,SSE,21.9,27.6,N/A,,Mostly Cloudy,150,2012-03-27 15:45:00
11:45 AM,50.0,23.0,35,29.98,10.0,SSE,18.4,29.9,N/A,,Clear,150,2012-03-27 16:45:00
12:45 PM,53.6,28.4,38,29.94,10.0,South,17.3,28.8,N/A,,Clear,170,2012-03-27 17:45:00
1:45 PM,55.4,33.8,44,29.89,10.0,South,19.6,31.1,N/A,,Clear,170,2012-03-27 18:45:00
2:45 PM,62.6,39.2,42,29.83,10.0,South,17.3,28.8,N/A,,Scattered Clouds,180,2012-03-27 19:45:00
3:45 PM,64.4,42.8,45,29.80,10.0,South,19.6,34.5,N/A,,Clear,180,2012-03-27 20:45:00
4:45 PM,69.8,46.4,43,29.76,10.0,SSW,23.0,34.5,N/A,,Scattered Clouds,210,2012-03-27 21:45:00
5:45 PM,68.0,48.2,49,29.73,10.0,SSW,23.0,39.1,N/A,,Scattered Clouds,210,2012-03-27 22:45:00
6:45 PM,66.2,48.2,52,29.73,10.0,SSW,23.0,34.5,N/A,,Scattered Clouds,210,2012-03-27 23:45:00
7:45 PM,66.2,50.0,56,29.71,10.0,SSW,17.3,28.8,N/A,,Mostly Cloudy,200,2012-03-28 00:45:00
8:45 PM,66.2,51.8,60,29.71,10.0,SSW,11.5,23.0,N/A,,Clear,210,2012-03-28 01:45:00
9:15 PM,64.4,51.8,64,29.71,10.0,SSW,11.5,19.6,N/A,,Clear,200,2012-03-28 02:15:00
9:35 PM,64.4,53.6,68,29.72,10.0,SW,13.8,25.3,N/A,,Clear,220,2012-03-28 02:35:00
9:55 PM,66.2,53.6,64,29.72,10.0,SW,11.5,24.2,N/A,,Clear,230,2012-03-28 02:55:00
10:15 PM,66.2,53.6,64,29.72,10.0,WSW,17.3,29.9,N/A,,Clear,240,2012-03-28 03:15:00
10:35 PM,64.4,53.6,68,29.73,10.0,WSW,10.4,24.2,N/A,,Clear,240,2012-03-28 03:35:00
10:55 PM,64.4,53.6,68,29.73,10.0,WSW,12.7,20.7,N/A,,Clear,250,2012-03-28 03:55:00
11:15 PM,64.4,50.0,59,29.73,10.0,WSW,17.3,25.3,N/A,,Clear,250,2012-03-28 04:15:00
11:35 PM,64.4,48.2,56,29.73,10.0,West,20.7,27.6,N/A,,Clear,260,2012-03-28 04:35:00
11:55 PM,64.4,46.4,52,29.73,10.0,WSW,17.3,24.2,N/A,,Clear,250,2012-03-28 04:55:00